Content
SEND FEEDBACK

Daily
Averages
Monthly
Summary
Canada

VANCOUVER - UNIVERSITY, BRITISH COLUMBIA


Home > North America > Canada > British Columbia
Elevation: 249 feet     Latitude: 49 15N     Longitude: 123 15W

WEATHER
 
SELECT A DAY
Number of Records: 198,947;   Date Range: 1/1/95 - 11/27/14
 
SHARE

PRINT THIS DATA

[ ← Previous Day ]
WEATHER ALMANAC - JULY 22, 2014
[ Next Day → ]
[ °C ]   °F
Weather ElementAverageHighLow
Temperature65.2 °F73.4 °F (9:00 am)57.2 °F (3:00 am)
Dewpoint54.2 °F57.2 °F (12:00 am)51.8 °F (5:00 am)
Humidity67.6 %88 % (3:00 am)46 % (5:00 pm)
Barometer30.03 in30.06 in (10:00 pm)29.99 in (12:00 am)
Wind Speed9.7 mph15 mph (9:00 am)
Wind Gust19.6 mph (10:00 am)
Weather ElementAverage
Visibility23.6 mi
Wind DirectionESE (126.6 °)

Weather ElementTotal
Precipitation---
Cooling Degree Days0.3 (Base 65)
Growing Degree Days15.3 (Base 50)
Averaged from 29 records on July 22, 2014
WEATHER CONDITIONS BREAKOUT
WIND DIRECTION BREAKOUT
WEATHER BY HOUR - JULY 22, 2014
[ °C ]   °F
Local TimeTemperatureDewpointHumidityBarometerVisibilityWind DirectionWind SpeedGust SpeedPrecipitationEventsConditions
12:00 AM60.8 °F51.8 °F72 %29.99 in15.0 miEast (90°)8.1 mphClear
1:00 AM59.0 °F51.8 °F77 %30.00 in15.0 miEast (90°)9.2 mphClear
2:00 AM60.8 °F51.8 °F72 %30.00 in15.0 miENE (70°)8.1 mphClear
3:00 AM60.8 °F53.6 °F77 %30.00 in15.0 miEast (80°)9.2 mphOvercast
4:00 AM60.8 °F53.6 °F77 %30.01 in15.0 miEast (100°)6.9 mphOvercast
5:00 AM58.0 °F53.0 °F78 %30.01 in15.0 miEast (100°)10.4 mphScattered Clouds
5:00 AM57.2 °F53.6 °F88 %30.01 in15.0 miEast (100°)10.4 mphPartly Cloudy
6:00 AM57.2 °F51.8 °F82 %30.01 in15.0 miESE (110°)8.1 mphPartly Cloudy
7:00 AM59.0 °F53.6 °F82 %30.02 in30.0 miESE (120°)8.1 mphScattered Clouds
8:00 AM62.6 °F53.6 °F72 %30.03 in30.0 miESE (120°)10.4 mphScattered Clouds
9:00 AM64.4 °F55.4 °F73 %30.04 in30.0 miSSE (150°)8.1 mph17.3 mphMostly Cloudy
10:00 AM66.2 °F53.6 °F64 %30.04 in30.0 miSouth (170°)9.2 mphMostly Cloudy
11:00 AM69.0 °F53.0 °F46 %30.04 in28.0 miSSE (150°)11.5 mphPartly Cloudy
11:00 AM69.8 °F53.6 °F56 %30.04 in30.0 miSSE (160°)11.5 mphScattered Clouds
12:00 PM71.6 °F53.6 °F53 %30.04 in30.0 miSSE (150°)11.5 mphMostly Cloudy
1:00 PM73.4 °F55.4 °F53 %30.05 in30.0 miSouth (180°)11.5 mphMostly Cloudy
1:35 PM71.6 °F53.6 °F53 %30.05 in30.0 miSE (130°)12.7 mph19.6 mphMostly Cloudy
2:00 PM73.4 °F53.6 °F50 %30.06 in30.0 miSE (130°)11.5 mph18.4 mphMostly Cloudy
3:00 PM71.6 °F53.6 °F53 %30.06 in30.0 miEast (100°)12.7 mph18.4 mphMostly Cloudy
4:00 PM69.8 °F55.4 °F60 %30.06 in30.0 miESE (120°)12.7 mphMostly Cloudy
5:00 PM68.0 °F55.0 °F54 %30.06 in28.0 miSE (130°)13.8 mphOvercast
5:00 PM68.0 °F55.4 °F64 %30.06 in30.0 miESE (120°)13.8 mphOvercast
6:00 PM68.0 °F55.4 °F64 %30.05 in30.0 miESE (110°)15.0 mphOvercast
7:00 PM68.0 °F55.4 °F64 %30.04 in20.0 miESE (110°)10.4 mph17.3 mphMostly Cloudy
8:00 PM66.2 °F55.4 °F68 %30.03 in20.0 miESE (110°)9.2 mphMostly Cloudy
9:00 PM64.4 °F55.4 °F73 %30.02 in20.0 miSE (130°)5.8 mphScattered Clouds
10:00 PM64.4 °F57.2 °F77 %30.03 in20.0 miSouth (180°)3.5 mphMostly Cloudy
11:00 PM63.0 °F57.0 °F76 %30.03 in19.0 miSouth (180°)3.5 mphOvercast
11:00 PM62.6 °F57.2 °F82 %30.03 in20.0 miSouth (180°)3.5 mphOvercast
Hourly data recorded from CYVR, located miles away from Vancouver - University, British Columbia







STORIES FROM OUR PARTNERS